Location: Rooftop Observatory
(39.0308°N, 87.1711°W)
Time: 01:35:50
(UTC-05:00)

Terra - Visible Passes

Search period start: 28 July 2017 00:00
Search period end: 07 August 2017 00:00
Orbit: 702 x 703 km, 98.2° (Epoch: 26 July)

Date Brightness Start Highest point End Pass type
(mag) Time Alt. Az. Time Alt. Az. Time Alt. Az.
28 Jul 3.9 21:25:21 11° E 21:26:59 13° ENE 21:29:04 10° NE visible
28 Jul 1.9 23:04:15 68° W 23:04:15 68° W 23:08:53 10° NNW visible
29 Jul 2.7 22:08:42 31° E 22:09:19 32° ENE 22:13:33 10° N visible
29 Jul 3.6 23:47:35 24° W 23:47:35 24° W 23:50:56 10° NW visible
30 Jul 1.7 22:52:02 86° N 22:52:02 86° N 22:56:42 10° NNW visible
31 Jul 3.1 21:56:29 24° E 21:57:12 25° ENE 22:01:03 10° NNE visible
31 Jul 3.2 23:35:22 31° W 23:35:22 31° W 23:39:03 10° NNW visible
01 Aug 1.8 22:39:49 67° ENE 22:39:49 67° ENE 22:44:28 10° N visible
02 Aug 4.4 00:18:43 11° W 00:18:43 11° W 00:19:32 10° WNW visible
02 Aug 3.4 21:44:16 18° E 21:45:07 19° ENE 21:48:28 10° NNE visible
02 Aug 2.8 23:23:10 41° WNW 23:23:10 41° WNW 23:27:03 10° NNW visible
03 Aug 2.2 22:27:37 50° ENE 22:27:37 50° ENE 22:32:11 10° N visible
04 Aug 4.2 00:06:30 15° WNW 00:06:30 15° WNW 00:08:27 10° NW visible
04 Aug 3.7 21:32:04 14° ENE 21:33:04 15° ENE 21:35:40 10° NNE visible
04 Aug 2.4 23:10:58 53° WNW 23:10:58 53° WNW 23:15:00 10° NNW visible
05 Aug 2.6 22:15:25 37° ENE 22:15:26 37° ENE 22:19:48 10° N visible
05 Aug 3.9 23:54:18 20° WNW 23:54:18 20° WNW 23:56:52 10° NW visible
06 Aug 4.0 21:19:53 10° ENE 21:21:01 11° ENE 21:22:23 10° NE visible
06 Aug 2.1 22:58:46 64° NW 22:58:46 64° NW 23:02:51 10° NNW visible
